This demonstration page uses our WeatherBlox Daily Observations layout. Learn more.

Left ArrowRight Arrow

Hourly Observations for April 25, 2020

Temp ( °F °C ) Dew Point ( °F °C ) Humidity (%) Winds ( mph kmh ) Pressure ( in mb ) Visibility ( mi km ) Precip ( " mm )
12:51 am 00:51 Clear 70 21.1 29 -1.7 22 22 NNW 10 17 29.8 1009 10 16.0934 0 0
1:51 am 01:51 Clear 69 20.6 30 -1.1 23 23 SSE 5 7 29.81 1010 10 16.0934 0 0
2:51 am 02:51 Clear 63 17.2 29 -1.7 28 28 SE 6 9 29.83 1010 10 16.0934 0 0
3:51 am 03:51 Clear 57 13.9 28 -2.2 33 33 SE 6 9 29.85 1011 10 16.0934 0 0
4:51 am 04:51 Clear 55 12.8 28 -2.2 35 35 E 5 7 29.87 1011 10 16.0934 0 0
5:51 am 05:51 Sunny 53 11.7 28 -2.2 38 38 Calm 29.89 1012 10 16.0934 0 0
6:51 am 06:51 Sunny 60 15.6 31 -0.6 33 33 Calm 29.91 1013 10 16.0934 0 0
7:51 am 07:51 Sunny 68 20 32 0 26 26 Calm 29.92 1013 10 16.0934 0 0
8:51 am 08:51 Sunny 74 23.3 33 0.6 22 22 WNW 7 11 29.92 1013 10 16.0934 0 0
9:51 am 09:51 Sunny 80 26.7 34 1.1 19 19 VRB 5 7 29.93 1013 10 16.0934 0 0
10:51 am 10:51 Sunny 84 28.9 31 -0.6 15 15 Calm 29.91 1013 10 16.0934 0 0
11:51 am 11:51 Sunny 87 30.6 28 -2.2 12 12 Calm 29.89 1012 10 16.0934 0 0
12:51 pm 12:51 Sunny 90 32.2 28 -2.2 11 11 VRB 3 6 29.86 1011 10 16.0934 0 0
1:51 pm 13:51 Sunny 93 33.9 26 -3.3 9 9 W 8 13 29.83 1010 10 16.0934 0 0
2:51 pm 14:51 Sunny 93 33.9 26 -3.3 9 9 NW 13 20 29.82 1010 10 16.0934 0 0
3:51 pm 15:51 Sunny 93 33.9 24 -4.4 8 8 WNW 8 13 29.81 1010 10 16.0934 0 0
4:51 pm 16:51 Sunny 93 33.9 22 -5.6 7 7 WNW 12 19 29.81 1009 10 16.0934 0 0
5:51 pm 17:51 Sunny 91 32.8 25 -3.9 9 9 NW 10 17 29.8 1009 10 16.0934 0 0
6:51 pm 18:51 Sunny 87 30.6 26 -3.3 11 11 WNW 10 17 29.8 1009 10 16.0934 0 0
7:51 pm 19:51 Clear 78 25.6 24 -4.4 13 13 NW 8 13 29.83 1010 10 16.0934 0 0
8:51 pm 20:51 Clear 76 24.4 23 -5 14 14 W 8 13 29.85 1011 10 16.0934 0 0
9:51 pm 21:51 Clear 71 21.7 24 -4.4 17 17 NW 5 7 29.85 1011 10 16.0934 0 0
10:51 pm 22:51 Clear 73 22.8 23 -5 15 15 N 8 13 29.85 1011 10 16.0934 0 0
11:51 pm 23:51 Clear 65 18.3 23 -5 20 20 ESE 5 7 29.88 1012 10 16.0934 0 0

Powered by AerisWeather